Weather History for Ashtabula, OH

Change the Weather History Date:

Monday, November 12, 2012

  Actual Average (KYNG) Record (KYNG)
Temperature  
Mean Temperature 50 °F 43 °F  
Max Temperature 64 °F 51 °F 73 °F (1949)
Min Temperature 35 °F 35 °F 19 °F (1950)
Degree Days  
Heating Degree Days 15 22  
Month to date heating degree days 244  
Since 1 July heating degree days 865  
Cooling Degree Days 0 0  
Month to date cooling degree days 0  
Year to date cooling degree days 544  
Moisture  
Dew Point 40 °F    
Average Humidity 72    
Maximum Humidity 89    
Minimum Humidity 35    
Precipitation  
Precipitation 0.62 in 0.10 in 0.82 in (1992)
Month to date precipitation 1.22  
Year to date precipitation 33.96  
Snow  
Snow 0.00 in 0.10 in - ()
Month to date snowfall 0.8  
Since 1 July snowfall 1.6  
Since 1 September snowfall 1.6  
Snow Depth -    
Sea Level Pressure  
Sea Level Pressure 30.10 in    
Wind  
Wind Speed 15 mph (WSW)    
Max Wind Speed 22 mph    
Max Gust Speed 30 mph    
Visibility 8 miles    
Events Rain    
T = Trace of Precipitation, MM = Missing Value Source: NWS Daily Summary

Daily Weather History Graph

Daily Weather History Graph

Search for Another Location

Airport:

Trip Planner

Search our weather history database for the weather conditions in past years. The results will help you decide how hot, cold, wet, or windy it might be!

Date:

Astronomy

Nov. 12, 2012 Rise Set
Actual Time 7:09 AM EST 5:04 PM EST
Civil Twilight 6:39 AM EST 5:34 PM EST
Nautical Twilight 6:05 AM EST 6:07 PM EST
Astronomical Twilight 5:33 AM EST 6:40 PM EST
Moon 5:31 AM EST (11/12) 4:08 PM EST (11/12)
Length of Visible Light 10h 54m
Length of Day
9h 55m
Waning Crescent, 2% of the Moon is Illuminated
Nov 12
Waning Crescent
Nov 13
New
Nov 20
First Quarter
Nov 28
Full
Dec 6
Last Quarter

Hourly Weather History & Observations

Time (EST) Temp. Windchill Dew Point Humidity Pressure Visibility Wind Dir Wind Speed Gust Speed Precip Events Conditions
12:53 AM 61.0 °F - 33.1 °F 35% 30.09 in 10.0 mi South 18.4 mph 25.3 mph N/A   Clear
1:53 AM 61.0 °F - 34.0 °F 36% 30.09 in 10.0 mi South 13.8 mph 26.5 mph N/A   Clear
2:53 AM 61.0 °F - 36.0 °F 39% 30.10 in 10.0 mi South 17.3 mph 26.5 mph N/A   Clear
3:53 AM 60.1 °F - 39.0 °F 46% 30.11 in 10.0 mi South 13.8 mph 21.9 mph N/A   Clear
4:53 AM 61.0 °F - 41.0 °F 48% 30.10 in 10.0 mi South 15.0 mph - N/A   Clear
5:53 AM 59.0 °F - 42.1 °F 53% 30.09 in 10.0 mi South 12.7 mph - N/A   Clear
6:53 AM 57.9 °F - 42.1 °F 56% 30.07 in 10.0 mi South 15.0 mph - N/A   Clear
7:53 AM 59.0 °F - 43.0 °F 55% 30.07 in 10.0 mi South 15.0 mph - N/A   Clear
8:53 AM 60.1 °F - 44.1 °F 55% 30.06 in 10.0 mi South 16.1 mph 27.6 mph N/A   Mostly Cloudy
9:53 AM 61.0 °F - 45.0 °F 56% 30.05 in 10.0 mi South 13.8 mph 21.9 mph N/A   Overcast
10:53 AM 63.0 °F - 46.0 °F 54% 30.02 in 10.0 mi South 13.8 mph 24.2 mph N/A   Clear
11:53 AM 64.9 °F - 46.9 °F 52% 29.97 in 10.0 mi South 19.6 mph 29.9 mph N/A   Scattered Clouds
12:53 PM 61.0 °F - 51.1 °F 70% 29.98 in 9.0 mi SSW 19.6 mph 27.6 mph 0.01 in Rain Light Rain
1:53 PM 57.9 °F - 53.1 °F 84% 29.98 in 2.0 mi SSW 15.0 mph - 0.15 in Rain Heavy Rain
2:11 PM 57.2 °F - 53.6 °F 88% 30.00 in 3.0 mi West 12.7 mph - 0.06 in Rain Rain
2:16 PM 53.6 °F - 48.2 °F 82% 29.99 in 2.5 mi West 12.7 mph 24.2 mph 0.07 in Rain Rain
2:19 PM 51.8 °F - 46.4 °F 82% 29.99 in 3.0 mi West 15.0 mph 24.2 mph 0.08 in Rain Rain
2:24 PM 51.8 °F - 46.4 °F 82% 29.99 in 2.5 mi West 16.1 mph 21.9 mph 0.11 in Rain Rain
2:32 PM 50.0 °F - 46.4 °F 87% 29.99 in 1.2 mi West 12.7 mph 21.9 mph 0.17 in Rain Heavy Rain
2:41 PM 50.0 °F - 46.4 °F 87% 30.00 in 2.0 mi West 13.8 mph 17.3 mph 0.20 in Rain Rain
2:51 PM 50.0 °F - 46.4 °F 87% 30.00 in 4.0 mi West 11.5 mph - 0.22 in Rain Rain
2:53 PM 50.0 °F - 46.9 °F 89% 30.00 in 4.0 mi West 11.5 mph - 0.22 in Rain Rain
3:02 PM 50.0 °F - 46.4 °F 87% 30.00 in 5.0 mi West 12.7 mph - 0.01 in Rain Light Rain
3:53 PM 46.0 °F 40.6 °F 42.1 °F 86% 30.04 in 2.5 mi West 11.5 mph 25.3 mph 0.09 in Rain Rain
4:01 PM 46.4 °F 41.5 °F 42.8 °F 87% 30.04 in 5.0 mi WNW 10.4 mph - 0.00 in Rain Light Rain
4:30 PM 44.6 °F 36.9 °F 39.2 °F 81% 30.06 in 6.0 mi West 18.4 mph 25.3 mph 0.03 in Rain Rain
4:53 PM 44.1 °F 38.1 °F 39.9 °F 85% 30.09 in 8.0 mi West 11.5 mph 19.6 mph 0.05 in Rain Light Rain
5:14 PM 44.6 °F 40.2 °F 39.2 °F 81% 30.09 in 5.0 mi West 8.1 mph 17.3 mph 0.03 in Rain Light Rain
5:24 PM 44.6 °F 38.1 °F 39.2 °F 81% 30.10 in 6.0 mi West 13.8 mph 18.4 mph 0.03 in Rain Light Rain
5:37 PM 44.6 °F 38.1 °F 39.2 °F 81% 30.10 in 10.0 mi West 13.8 mph 20.7 mph 0.04 in Rain Light Rain
5:53 PM 44.1 °F 36.5 °F 37.9 °F 79% 30.13 in 10.0 mi West 17.3 mph 25.3 mph 0.05 in Rain Light Rain
6:01 PM 42.8 °F 33.8 °F 37.4 °F 81% 30.13 in 9.0 mi West 21.9 mph 27.6 mph 0.00 in Rain Light Rain
6:33 PM 42.8 °F 35.8 °F 35.6 °F 76% 30.15 in 10.0 mi West 13.8 mph 23.0 mph 0.03 in Rain Light Rain
6:49 PM 41.0 °F 34.3 °F 35.6 °F 81% 30.16 in 10.0 mi West 11.5 mph - 0.03 in Rain Light Rain
6:53 PM 41.0 °F 32.2 °F 35.1 °F 79% 30.17 in 10.0 mi West 18.4 mph 24.2 mph 0.03 in Rain Light Rain
7:05 PM 39.2 °F 32.0 °F 33.8 °F 81% 30.17 in 10.0 mi West 11.5 mph - 0.01 in Rain Light Rain
7:53 PM 39.0 °F 33.4 °F 34.0 °F 82% 30.17 in 10.0 mi SW 8.1 mph 18.4 mph 0.01 in   Overcast
8:33 PM 39.2 °F 31.2 °F 32.0 °F 75% 30.21 in 10.0 mi WSW 13.8 mph - 0.01 in Rain Light Rain
8:53 PM 37.9 °F 28.9 °F 32.0 °F 79% 30.25 in 10.0 mi WSW 16.1 mph - 0.01 in   Overcast
9:02 PM 37.4 °F 29.8 °F 32.0 °F 81% 30.23 in 10.0 mi WSW 11.5 mph - N/A   Overcast
9:23 PM 37.4 °F 28.5 °F 30.2 °F 75% 30.23 in 10.0 mi West 15.0 mph 23.0 mph N/A   Mostly Cloudy
9:34 PM 37.4 °F 29.3 °F 28.4 °F 70% 30.23 in 10.0 mi West 12.7 mph - N/A   Mostly Cloudy
9:53 PM 37.0 °F 28.5 °F 30.0 °F 76% 30.27 in 10.0 mi West 13.8 mph - N/A   Mostly Cloudy
10:53 PM 36.0 °F 26.7 °F 25.0 °F 64% 30.30 in 10.0 mi SW 15.0 mph - N/A   Overcast
11:53 PM 35.1 °F 25.5 °F 25.0 °F 67% 30.32 in 10.0 mi SW 15.0 mph - N/A   Overcast